Location: *
(37.4917°N, 71.5558°E)
Time: 03:27:15
(UTC+00:00)

Cosmos 2218 Rocket - Pass Details

Date: 09 April 2020
Orbit: 957 x 1005 km, 82.9° (Epoch: 31 May)

Event Time Altitude Azimuth Distance (km) Brightness Sun altitude
Rises 15:43:02 0° 357° (N) 3,668 7.5 -22.9°
Reaches altitude 10° 15:45:35 10° 1° (N) 2,724 6.7 -23.3°
Maximum altitude 15:51:45 60° 81° (E) 1,116 4.0 -24.3°
Enters shadow 15:52:39 54° 116° (ESE) 1,177 4.0 -24.5°
